Time,TemperatureF,DewpointF,PressureIn,WindDirection,WindDirectionDegrees,WindSpeedMPH,WindSpeedGustMPH,Humidity,HourlyPrecipIn,Conditions,Clouds,dailyrainin,SoftwareType,DateUTC
2013-03-19 00:03:00,41.0,33.0,29.84,South,169,1.0,8.0,72,0.00,,,1.05,,2013-03-19 04:03:00,
2013-03-19 00:13:00,41.0,33.0,29.84,South,169,1.0,8.0,72,0.00,,,1.05,,2013-03-19 04:13:00,
2013-03-19 00:23:00,41.0,33.0,29.84,South,169,1.0,8.0,72,0.00,,,1.05,,2013-03-19 04:23:00,
2013-03-19 00:33:00,40.0,33.0,29.83,East,89,3.0,4.0,75,0.00,,,1.02,,2013-03-19 04:33:00,
2013-03-19 00:43:00,40.0,33.0,29.83,East,89,3.0,4.0,75,0.00,,,1.02,,2013-03-19 04:43:00,
2013-03-19 00:53:00,40.0,33.0,29.83,East,93,0.0,7.0,76,0.00,,,1.00,,2013-03-19 04:53:00,
2013-03-19 01:02:00,39.0,32.0,29.83,South,182,6.0,8.0,77,0.00,,,0.97,,2013-03-19 05:02:00,
2013-03-19 01:12:00,39.0,32.0,29.83,South,182,6.0,8.0,77,0.00,,,0.97,,2013-03-19 05:12:00,
2013-03-19 01:22:00,39.0,33.0,29.83,South,176,0.0,6.0,78,0.00,,,0.94,,2013-03-19 05:22:00,
2013-03-19 01:32:00,39.0,33.0,29.83,South,176,0.0,6.0,78,0.00,,,0.94,,2013-03-19 05:32:00,
2013-03-19 01:43:00,39.0,33.0,29.83,South,176,0.0,6.0,78,0.00,,,0.94,,2013-03-19 05:43:00,
2013-03-19 01:52:00,39.0,33.0,29.83,South,178,0.0,11.0,78,0.00,,,0.87,,2013-03-19 05:52:00,
2013-03-19 02:02:00,39.0,33.0,29.84,SE,128,0.0,9.0,79,0.00,,,0.85,,2013-03-19 06:02:00,
2013-03-19 02:12:00,39.0,33.0,29.84,SE,128,0.0,9.0,79,0.00,,,0.85,,2013-03-19 06:12:00,
2013-03-19 02:22:00,39.0,33.0,29.85,South,175,1.0,8.0,80,0.00,,,0.83,,2013-03-19 06:22:00,
2013-03-19 02:32:00,39.0,33.0,29.85,SSE,150,0.0,8.0,80,0.00,,,0.79,,2013-03-19 06:32:00,
2013-03-19 02:42:00,39.0,33.0,29.85,SSE,150,0.0,8.0,80,0.00,,,0.79,,2013-03-19 06:42:00,
2013-03-19 02:52:00,39.0,34.0,29.85,South,181,3.0,10.0,81,0.00,,,0.75,,2013-03-19 06:52:00,
2013-03-19 03:02:00,38.0,33.0,29.86,South,178,1.0,10.0,81,0.00,,,0.71,,2013-03-19 07:02:00,
2013-03-19 03:12:00,38.0,33.0,29.86,South,178,1.0,10.0,81,0.00,,,0.71,,2013-03-19 07:12:00,
2013-03-19 03:22:00,39.0,34.0,29.87,South,178,0.0,8.0,82,0.00,,,0.68,,2013-03-19 07:22:00,
2013-03-19 03:32:00,39.0,33.0,29.87,SSW,200,3.0,12.0,80,0.00,,,0.67,,2013-03-19 07:32:00,
2013-03-19 03:42:00,39.0,33.0,29.87,SSW,200,3.0,12.0,80,0.00,,,0.67,,2013-03-19 07:42:00,
2013-03-19 03:53:00,39.0,33.0,29.86,South,182,2.0,13.0,79,0.00,,,0.64,,2013-03-19 07:53:00,
2013-03-19 04:03:00,38.0,32.0,29.87,South,181,1.0,11.0,78,0.00,,,0.62,,2013-03-19 08:03:00,
2013-03-19 04:12:00,38.0,32.0,29.87,South,181,1.0,11.0,78,0.00,,,0.62,,2013-03-19 08:12:00,
2013-03-19 04:22:00,38.0,31.0,29.87,South,174,0.0,10.0,77,0.00,,,0.62,,2013-03-19 08:22:00,
2013-03-19 04:32:00,38.0,31.0,29.87,SW,223,1.0,13.0,76,0.00,,,0.61,,2013-03-19 08:32:00,
2013-03-19 04:42:00,38.0,31.0,29.87,SW,223,1.0,13.0,76,0.00,,,0.61,,2013-03-19 08:42:00,
2013-03-19 04:53:00,38.0,30.0,29.87,SW,234,4.0,17.0,73,0.00,,,0.61,,2013-03-19 08:53:00,
2013-03-19 05:02:00,37.0,28.0,29.87,SSW,205,1.0,14.0,69,0.00,,,0.60,,2013-03-19 09:02:00,
2013-03-19 05:12:00,37.0,28.0,29.87,SSW,205,1.0,14.0,69,0.00,,,0.60,,2013-03-19 09:12:00,
2013-03-19 05:22:00,37.0,27.0,29.87,SE,126,2.0,12.0,68,0.00,,,0.56,,2013-03-19 09:22:00,
2013-03-19 05:32:00,36.0,26.0,29.88,South,185,6.0,10.0,67,0.00,,,0.49,,2013-03-19 09:32:00,
2013-03-19 05:43:00,36.0,26.0,29.88,South,185,6.0,10.0,67,0.00,,,0.49,,2013-03-19 09:43:00,
2013-03-19 05:53:00,35.0,25.0,29.89,SSE,165,1.0,12.0,67,0.00,,,0.43,,2013-03-19 09:53:00,
2013-03-19 06:03:00,34.0,24.0,29.89,SSW,199,1.0,10.0,66,0.00,,,0.31,,2013-03-19 10:03:00,
2013-03-19 06:13:00,34.0,24.0,29.89,SSW,199,1.0,10.0,66,0.00,,,0.31,,2013-03-19 10:13:00,
2013-03-19 06:23:00,33.0,23.0,29.91,South,171,1.0,10.0,65,0.00,,,0.15,,2013-03-19 10:23:00,
2013-03-19 06:33:00,33.0,23.0,29.91,SSW,193,0.0,11.0,65,0.00,,,0.06,,2013-03-19 10:33:00,
2013-03-19 06:42:00,33.0,23.0,29.91,SSW,193,0.0,11.0,65,0.00,,,0.06,,2013-03-19 10:42:00,
2013-03-19 06:53:00,32.0,22.0,29.92,SW,215,1.0,11.0,67,0.00,,,0.02,,2013-03-19 10:53:00,
2013-03-19 07:03:00,32.0,23.0,29.93,SSW,206,3.0,8.0,68,0.00,,,0.01,,2013-03-19 11:03:00,
2013-03-19 07:12:00,32.0,23.0,29.93,SSW,206,3.0,8.0,68,0.00,,,0.01,,2013-03-19 11:12:00,
2013-03-19 07:22:00,31.0,22.0,29.93,South,179,0.0,6.0,70,0.00,,,0.00,,2013-03-19 11:22:00,
2013-03-19 07:33:00,31.0,22.0,29.93,SSW,205,2.0,6.0,70,0.00,,,0.00,,2013-03-19 11:33:00,
2013-03-19 07:43:00,31.0,22.0,29.93,SSW,205,2.0,6.0,70,0.00,,,0.00,,2013-03-19 11:43:00,
2013-03-19 07:53:00,31.0,22.0,29.93,SE,126,1.0,6.0,70,0.00,,,0.00,,2013-03-19 11:53:00,
2013-03-19 08:02:00,30.0,21.0,29.94,SSW,192,3.0,11.0,69,0.00,,,0.00,,2013-03-19 12:02:00,
2013-03-19 08:12:00,30.0,21.0,29.94,SSW,203,6.0,7.0,68,0.00,,,0.00,,2013-03-19 12:12:00,
2013-03-19 08:22:00,30.0,21.0,29.94,SSW,203,6.0,7.0,68,0.00,,,0.00,,2013-03-19 12:22:00,
2013-03-19 08:33:00,30.0,20.0,29.94,South,179,2.0,8.0,67,0.00,,,0.00,,2013-03-19 12:33:00,
2013-03-19 08:42:00,30.0,20.0,29.94,South,179,2.0,8.0,67,0.00,,,0.00,,2013-03-19 12:42:00,
2013-03-19 08:52:00,29.0,18.0,29.94,South,172,8.0,11.0,63,0.00,,,0.00,,2013-03-19 12:52:00,
2013-03-19 09:02:00,30.0,19.0,29.96,SSE,155,0.0,8.0,64,0.00,,,0.00,,2013-03-19 13:02:00,
2013-03-19 09:12:00,30.0,19.0,29.96,SSE,155,0.0,8.0,64,0.00,,,0.00,,2013-03-19 13:12:00,
2013-03-19 09:22:00,30.0,19.0,29.97,SE,133,5.0,20.0,64,0.00,,,0.00,,2013-03-19 13:22:00,
2013-03-19 09:33:00,30.0,18.0,29.97,SSE,160,6.0,16.0,61,0.00,,,0.00,,2013-03-19 13:33:00,
2013-03-19 09:42:00,30.0,18.0,29.97,SSE,160,6.0,16.0,61,0.00,,,0.00,,2013-03-19 13:42:00,
2013-03-19 09:53:00,30.0,18.0,29.96,SSE,168,0.0,14.0,60,0.00,,,0.00,,2013-03-19 13:53:00,
2013-03-19 10:02:00,31.0,18.0,29.96,SSW,195,2.0,12.0,58,0.00,,,0.00,,2013-03-19 14:02:00,
2013-03-19 10:12:00,31.0,18.0,29.96,SSW,195,2.0,12.0,58,0.00,,,0.00,,2013-03-19 14:12:00,
2013-03-19 10:22:00,31.0,18.0,29.96,SSE,164,1.0,12.0,58,0.00,,,0.00,,2013-03-19 14:22:00,
2013-03-19 10:32:00,32.0,19.0,29.97,SSW,195,0.0,12.0,58,0.00,,,0.00,,2013-03-19 14:32:00,
2013-03-19 10:42:00,32.0,19.0,29.97,SSW,195,0.0,12.0,58,0.00,,,0.00,,2013-03-19 14:42:00,
2013-03-19 10:53:00,33.0,19.0,29.97,South,182,3.0,13.0,56,0.00,,,0.00,,2013-03-19 14:53:00,
2013-03-19 11:02:00,33.0,19.0,29.97,SSW,196,6.0,12.0,55,0.00,,,0.00,,2013-03-19 15:02:00,
2013-03-19 11:12:00,33.0,19.0,29.97,SSW,196,6.0,12.0,55,0.00,,,0.00,,2013-03-19 15:12:00,
2013-03-19 11:22:00,34.0,18.0,29.98,SSW,208,2.0,14.0,52,0.00,,,0.00,,2013-03-19 15:22:00,
2013-03-19 11:34:00,34.0,18.0,29.98,SSW,202,7.0,19.0,51,0.00,,,0.00,,2013-03-19 15:34:00,
2013-03-19 11:43:00,34.0,18.0,29.98,SSW,202,7.0,19.0,51,0.00,,,0.00,,2013-03-19 15:43:00,
2013-03-19 11:54:00,35.0,18.0,29.98,SE,134,5.0,16.0,50,0.00,,,0.00,,2013-03-19 15:54:00,
2013-03-19 12:04:00,36.0,19.0,29.98,SSW,206,3.0,12.0,50,0.00,,,0.00,,2013-03-19 16:04:00,
2013-03-19 12:13:00,36.0,19.0,29.98,SSW,206,3.0,12.0,50,0.00,,,0.00,,2013-03-19 16:13:00,
2013-03-19 12:24:00,37.0,18.0,29.97,SSW,196,3.0,13.0,46,0.00,,,0.00,,2013-03-19 16:24:00,
2013-03-19 12:34:00,37.0,18.0,29.97,South,182,10.0,17.0,45,0.00,,,0.00,,2013-03-19 16:34:00,
2013-03-19 12:44:00,37.0,18.0,29.97,South,182,10.0,17.0,45,0.00,,,0.00,,2013-03-19 16:44:00,
2013-03-19 12:54:00,37.0,18.0,29.97,South,182,10.0,17.0,45,0.00,,,0.00,,2013-03-19 16:54:00,
2013-03-19 13:03:00,39.0,18.0,29.97,SW,216,3.0,16.0,42,0.00,,,0.00,,2013-03-19 17:03:00,
2013-03-19 13:13:00,39.0,16.0,29.97,SSW,212,6.0,13.0,39,0.00,,,0.00,,2013-03-19 17:13:00,
2013-03-19 13:24:00,39.0,16.0,29.97,SSW,212,6.0,13.0,39,0.00,,,0.00,,2013-03-19 17:24:00,
2013-03-19 13:34:00,40.0,15.0,29.98,SSW,205,7.0,22.0,36,0.00,,,0.00,,2013-03-19 17:34:00,
2013-03-19 13:44:00,40.0,15.0,29.98,SSW,205,7.0,22.0,36,0.00,,,0.00,,2013-03-19 17:44:00,
2013-03-19 13:53:00,41.0,17.0,29.99,SW,220,4.0,17.0,38,0.00,,,0.00,,2013-03-19 17:53:00,
2013-03-19 14:03:00,41.0,17.0,29.99,SW,236,4.0,18.0,38,0.00,,,0.00,,2013-03-19 18:03:00,
2013-03-19 14:13:00,41.0,17.0,29.99,SW,236,4.0,18.0,38,0.00,,,0.00,,2013-03-19 18:13:00,
2013-03-19 14:23:00,42.0,18.0,29.99,SSW,200,4.0,14.0,38,0.00,,,0.00,,2013-03-19 18:23:00,
2013-03-19 14:33:00,42.0,16.0,29.99,South,171,3.0,27.0,34,0.00,,,0.00,,2013-03-19 18:33:00,
2013-03-19 14:43:00,42.0,16.0,29.99,South,171,3.0,27.0,34,0.00,,,0.00,,2013-03-19 18:43:00,
2013-03-19 14:53:00,42.0,17.0,29.99,SSW,212,6.0,20.0,36,0.00,,,0.00,,2013-03-19 18:53:00,
2013-03-19 15:02:00,43.0,17.0,30.00,NW,315,1.0,21.0,34,0.00,,,0.00,,2013-03-19 19:02:00,
2013-03-19 15:12:00,43.0,17.0,30.00,NW,315,1.0,21.0,34,0.00,,,0.00,,2013-03-19 19:12:00,
2013-03-19 15:22:00,44.0,16.0,30.00,SW,233,1.0,17.0,32,0.00,,,0.00,,2013-03-19 19:22:00,
2013-03-19 15:33:00,43.0,15.0,30.01,SSW,206,3.0,19.0,32,0.00,,,0.00,,2013-03-19 19:33:00,
2013-03-19 15:42:00,43.0,15.0,30.01,SSW,206,3.0,19.0,32,0.00,,,0.00,,2013-03-19 19:42:00,
2013-03-19 15:53:00,44.0,15.0,30.00,SSW,198,6.0,17.0,30,0.00,,,0.00,,2013-03-19 19:53:00,
2013-03-19 16:03:00,45.0,17.0,30.00,WSW,246,3.0,12.0,32,0.00,,,0.00,,2013-03-19 20:03:00,
2013-03-19 16:12:00,45.0,14.0,30.01,SSW,200,3.0,16.0,28,0.00,,,0.00,,2013-03-19 20:12:00,
2013-03-19 16:22:00,45.0,14.0,30.01,SSW,200,3.0,16.0,28,0.00,,,0.00,,2013-03-19 20:22:00,
2013-03-19 16:33:00,46.0,15.0,30.01,SSE,162,1.0,19.0,28,0.00,,,0.00,,2013-03-19 20:33:00,
2013-03-19 16:43:00,46.0,15.0,30.01,SSE,162,1.0,19.0,28,0.00,,,0.00,,2013-03-19 20:43:00,
2013-03-19 16:53:00,46.0,15.0,30.02,ESE,103,5.0,14.0,28,0.00,,,0.00,,2013-03-19 20:53:00,
2013-03-19 17:02:00,46.0,12.0,30.03,SSE,152,3.0,13.0,25,0.00,,,0.00,,2013-03-19 21:02:00,
2013-03-19 17:12:00,45.0,14.0,30.03,SW,232,6.0,16.0,28,0.00,,,0.00,,2013-03-19 21:12:00,
2013-03-19 17:23:00,45.0,14.0,30.03,SW,232,6.0,16.0,28,0.00,,,0.00,,2013-03-19 21:23:00,
2013-03-19 17:34:00,45.0,10.0,30.04,SSW,200,5.0,17.0,24,0.00,,,0.00,,2013-03-19 21:34:00,
2013-03-19 17:43:00,45.0,10.0,30.04,SSW,200,5.0,17.0,24,0.00,,,0.00,,2013-03-19 21:43:00,
2013-03-19 17:53:00,46.0,11.0,30.04,South,185,7.0,12.0,24,0.00,,,0.00,,2013-03-19 21:53:00,
2013-03-19 18:03:00,46.0,12.0,30.03,South,171,2.0,11.0,25,0.00,,,0.00,,2013-03-19 22:03:00,
2013-03-19 18:13:00,46.0,12.0,30.03,South,171,2.0,11.0,25,0.00,,,0.00,,2013-03-19 22:13:00,
2013-03-19 18:23:00,46.0,13.0,30.04,ESE,103,3.0,14.0,26,0.00,,,0.00,,2013-03-19 22:23:00,
2013-03-19 18:33:00,46.0,13.0,30.04,ESE,103,3.0,14.0,26,0.00,,,0.00,,2013-03-19 22:33:00,
2013-03-19 18:43:00,44.0,11.0,30.05,WSW,244,5.0,12.0,26,0.00,,,0.00,,2013-03-19 22:43:00,
2013-03-19 18:53:00,44.0,11.0,30.05,WSW,244,5.0,12.0,26,0.00,,,0.00,,2013-03-19 22:53:00,
2013-03-19 19:03:00,43.0,11.0,30.05,SW,230,4.0,12.0,27,0.00,,,0.00,,2013-03-19 23:03:00,
2013-03-19 19:12:00,43.0,11.0,30.05,SW,230,4.0,12.0,27,0.00,,,0.00,,2013-03-19 23:12:00,
2013-03-19 19:22:00,42.0,11.0,30.07,SSW,192,11.0,14.0,28,0.00,,,0.00,,2013-03-19 23:22:00,
2013-03-19 19:32:00,42.0,13.0,30.07,WNW,296,0.0,11.0,30,0.00,,,0.00,,2013-03-19 23:32:00,
2013-03-19 19:42:00,42.0,13.0,30.07,WNW,296,0.0,11.0,30,0.00,,,0.00,,2013-03-19 23:42:00,
2013-03-19 19:53:00,41.0,10.0,30.07,South,169,5.0,10.0,28,0.00,,,0.00,,2013-03-19 23:53:00,
2013-03-19 20:03:00,41.0,12.0,30.08,South,169,4.0,10.0,30,0.00,,,0.00,,2013-03-20 00:03:00,
2013-03-19 20:13:00,41.0,12.0,30.08,South,169,4.0,10.0,30,0.00,,,0.00,,2013-03-20 00:13:00,
2013-03-19 20:22:00,40.0,12.0,30.08,WSW,240,0.0,19.0,31,0.00,,,0.00,,2013-03-20 00:22:00,
2013-03-19 20:33:00,40.0,14.0,30.09,NE,51,2.0,6.0,34,0.00,,,0.00,,2013-03-20 00:33:00,
2013-03-19 20:42:00,40.0,14.0,30.09,NE,51,2.0,6.0,34,0.00,,,0.00,,2013-03-20 00:42:00,
2013-03-19 20:52:00,39.0,12.0,30.09,ESE,102,1.0,6.0,33,0.00,,,0.00,,2013-03-20 00:52:00,
2013-03-19 21:03:00,39.0,12.0,30.09,East,100,0.0,5.0,33,0.00,,,0.00,,2013-03-20 01:03:00,
2013-03-19 21:12:00,39.0,13.0,30.09,ENE,65,1.0,5.0,34,0.00,,,0.00,,2013-03-20 01:12:00,
2013-03-19 21:22:00,39.0,13.0,30.09,ENE,65,1.0,5.0,34,0.00,,,0.00,,2013-03-20 01:22:00,
2013-03-19 21:32:00,39.0,14.0,30.09,ESE,109,1.0,5.0,35,0.00,,,0.00,,2013-03-20 01:32:00,
2013-03-19 21:42:00,39.0,14.0,30.09,ESE,109,1.0,5.0,35,0.00,,,0.00,,2013-03-20 01:42:00,
2013-03-19 21:53:00,38.0,13.0,30.10,ESE,106,0.0,5.0,35,0.00,,,0.00,,2013-03-20 01:53:00,
2013-03-19 22:02:00,38.0,14.0,30.10,East,97,0.0,2.0,37,0.00,,,0.00,,2013-03-20 02:02:00,
2013-03-19 22:12:00,38.0,14.0,30.10,East,97,0.0,2.0,37,0.00,,,0.00,,2013-03-20 02:12:00,
2013-03-19 22:22:00,37.0,14.0,30.11,East,93,0.0,6.0,39,0.00,,,0.00,,2013-03-20 02:22:00,
2013-03-19 22:32:00,37.0,15.0,30.10,East,97,1.0,6.0,40,0.00,,,0.00,,2013-03-20 02:32:00,
2013-03-19 22:42:00,37.0,15.0,30.10,East,97,1.0,6.0,40,0.00,,,0.00,,2013-03-20 02:42:00,
2013-03-19 22:53:00,36.0,14.0,30.10,East,93,0.0,3.0,40,0.00,,,0.00,,2013-03-20 02:53:00,
2013-03-19 23:02:00,36.0,15.0,30.11,East,88,0.0,2.0,41,0.00,,,0.00,,2013-03-20 03:02:00,
2013-03-19 23:12:00,36.0,15.0,30.11,ENE,75,0.0,4.0,42,0.00,,,0.00,,2013-03-20 03:12:00,
2013-03-19 23:22:00,36.0,15.0,30.11,ENE,75,0.0,4.0,42,0.00,,,0.00,,2013-03-20 03:22:00,
2013-03-19 23:34:00,36.0,16.0,30.10,ENE,76,0.0,2.0,43,0.00,,,0.00,,2013-03-20 03:34:00,
2013-03-19 23:43:00,36.0,16.0,30.10,ENE,76,0.0,2.0,43,0.00,,,0.00,,2013-03-20 03:43:00,
2013-03-19 23:53:00,36.0,16.0,30.10,ENE,76,0.0,2.0,43,0.00,,,0.00,,2013-03-20 03:53:00,